INSAT-3D

Last updated on Jan. 18, 2020, 4:38 a.m. UTC

1 39216U 13038B   20017.53266689 -.00000160  00000-0  00000-0 0  9999
2 39216   0.0640 272.9591 0000924  43.4204  73.8733  1.00272046 23615
UTC
Height (km)
Latitude
Longitude
Inclination
Orbital Period
UTC large
Height (km)
Speed (km/s)
/
Latitude / Longitude
Inclination (degrees)
Orbital Period (minutes)
Azimuth
Elevation
Range (km)
Doppler Factor
iOS Compass Heading
iOS Angle

Next 30 passes for location: Hong Kong

Rise time Rise Azimuth (degrees) Set time Set Azimuth (degrees) Duration Max altitude (degrees)

No matching passes for this satellites